{"data":{"norad_id":41330,"intl_designator":"2016-008A","name":"COSMOS 2514 (751)","alt_names":[],"object_type":"PAYLOAD","status":"ACTIVE","operator":null,"country":"CIS","launch_date":"2016-02-07","launch_site_code":"PLMSC","launch_vehicle":null,"mission":null,"orbit_class":"UNKNOWN","rcs_meters":11.2901,"size_class":null,"mass_kg":null,"dimensions":null,"purposes":["nav"],"wikipedia_slug":null,"has_3d_model":false,"image_url":null,"decayed_at":null,"tle_current":{"epoch":"2026-09-20T01:49:03.428832Z","epoch_age_seconds":50940,"freshness":"FRESH","line1":"1 41330U 16008A   26263.07573413 -.00000022  00000+0  00000+0 0  9998","line2":"2 41330  64.9604 309.7448 0013736 210.8516 149.1400  2.13102932 82642","mean_motion":2.13102932,"eccentricity":0.0013736,"inclination_deg":64.9604,"raan_deg":309.7448,"arg_perigee_deg":210.8516,"mean_anomaly_deg":149.14,"bstar":0,"rev_number":8264,"period_min":675.7297923991,"perigee_km":19094.775334838,"apogee_km":19164.850775229,"semimajor_km":25507.950055033,"source":"CELESTRAK","updated_at":"2026-09-20T09:00:46.276855Z"}}}